Hourly Data Report for October 30, 2015

All times are specified in Local Standard Time (LST). Add 1 hour to adjust for Daylight Saving Time where and when it is observed.

BATHURST A
NEW BRUNSWICK

47°37'47.000" N
65°44'20.000" W
58.80 m
8100505
71574
ZBF

Download Data

Hourly Data (October 2015)
Hourly Data Report for October 30, 2015
Temp Definition
°C
Dew Point Temp Definition
°C
Rel Hum Definition
%
Wind Dir Definition
10's deg

Wind Spd Definition
km/h
Visibility Definition
km
Stn Press Definition
kPa
Hmdx Definition


Wind Chill Definition


Weather Definition


TIME
00:00 Legend Double Dagger 8.5 3.0 68 25 18 24.1 98.25     LegendNANA
01:00 Legend Double Dagger 7.0 1.5 68 24 18 24.1 98.23     LegendNANA
02:00 Legend Double Dagger 6.2 0.3 66 25 17 24.1 98.18     Mainly Clear
03:00 Legend Double Dagger 6.2 -0.3 63 24 20 24.1 98.18     LegendNANA
04:00 Legend Double Dagger 5.3 -0.7 65 24 25 24.1 98.19     LegendNANA
05:00 Legend Double Dagger 5.3 -0.7 65 24 31 24.1 98.19     Mainly Clear
06:00 Legend Double Dagger 5.4 -0.2 67 24 22 24.1 98.12     LegendNANA
07:00 Legend Double Dagger 6.3 0.0 64 23 20 24.1 98.13     LegendNANA
08:00 Legend Double Dagger 6.9 0.4 63 24 30 24.1 98.14     Mostly Cloudy
09:00 Legend Double Dagger 6.5 0.6 66 27 39 24.1 98.27     LegendNANA
10:00 Legend Double Dagger 7.5 -0.7 56 27 32 24.1 98.38     LegendNANA
11:00 Legend Double Dagger 6.8 -3.2 49 27 47 24.1 98.59     Mainly Clear
12:00 Legend Double Dagger 6.0 -3.6 50 29 33 24.1 98.77     LegendNANA
13:00 Legend Double Dagger 6.4 -4.4 46 28 34 24.1 98.86     LegendNANA
14:00 Legend Double Dagger 6.7 -5.0 43 28 43 24.1 98.95     Mostly Cloudy
15:00 Legend Double Dagger 6.8 -5.9 40 29 32 24.1 99.08     LegendNANA
16:00 Legend Double Dagger 5.7 -4.7 47 27 37 24.1 99.18     LegendNANA
17:00 Legend Double Dagger 4.8 -5.6 47 28 28 24.1 99.28     Mainly Clear
18:00 Legend Double Dagger 4.2 -5.9 48 28 30 24.1 99.38     LegendNANA
19:00 Legend Double Dagger 3.6 -5.6 51 28 24 24.1 99.53     LegendNANA
20:00 Legend Double Dagger 3.3 -5.9 51 28 38 24.1 99.57     Clear
21:00 Legend Double Dagger 3.0 -5.9 52 29 25 24.1 99.69     LegendNANA
22:00 Legend Double Dagger 2.8 -6.9 49 29 26 24.1 99.79     LegendNANA
23:00 Legend Double Dagger 2.6 -6.3 52 30 22 24.1 99.90     Mainly Clear

Notes on Data Quality.

Legend

  • E = Estimated
  • M = Missing
  • NA = Not Available
  • ‡ = Partner data that is not subject to review by the National Climate Archives
Date modified: